Lebanon, NH

6:50 AM EDT on October 21, 2017 (GMT -0400)
Lebanon Municipal

Weather History for KLEB - July, 2013

Change the Weather History Date:

Saturday, July 27, 2013

  Actual Average Record
Temperature  
Mean Temperature 68 °F -  
Max Temperature 84 °F 82 °F 95 °F (1989)
Min Temperature 53 °F 58 °F 42 °F (1977)
Cooling Degree Days 2    
Growing Degree Days 18 (Base 50)    
Moisture  
Dew Point 57 °F    
Average Humidity 82    
Maximum Humidity 100    
Minimum Humidity 39    
Precipitation  
Precipitation 0.01 in - - ()
Sea Level Pressure  
Sea Level Pressure 30.01 in    
Wind  
Wind Speed 1 mph (South)    
Max Wind Speed 6 mph    
Max Gust Speed -    
Visibility 6 miles    
Events Fog    
Averages and records for this station are not official NWS values.
T = Trace of Precipitation, MM = Missing Value Source: NWS Daily Summary

Daily Weather History Graph

Daily Weather History Graph

Search for Another Location

Airport or City:

Trip Planner

Search our weather history database for the weather conditions in past years. The results will help you decide how hot, cold, wet, or windy it might be!

Date:

Astronomy

Jul. 27, 2013 Rise Set
Actual Time 5:33 AM EDT 8:17 PM EDT
Civil Twilight 5:00 AM EDT 8:50 PM EDT
Nautical Twilight 4:18 AM EDT 9:32 PM EDT
Astronomical Twilight 3:29 AM EDT 10:20 PM EDT
Moon 10:49 PM EDT (7/27) 11:23 AM EDT (7/27)
Length of Visible Light 15h 50m
Length of Day
14h 44m
Waning Gibbous, 71% of the Moon is Illuminated
Jul 27
Waning Gibbous
Jul 29
Last Quarter
Aug 6
New
Aug 14
First Quarter
Aug 20
Full

Hourly Weather History & Observations

Time (EDT) Temp. Heat Index Dew Point Humidity Pressure Visibility Wind Dir Wind Speed Gust Speed Precip Events Conditions
12:53 AM 57.9 °F - 57.0 °F 97% 30.01 in 10.0 mi Calm Calm - N/A   Clear
1:53 AM 55.9 °F - 55.0 °F 97% 30.01 in 10.0 mi SSE 5.8 mph - N/A   Clear
2:53 AM 55.9 °F - 54.0 °F 93% 30.01 in 10.0 mi SSE 4.6 mph - N/A   Clear
3:23 AM 53.6 °F - 51.8 °F 94% 30.03 in 1.2 mi Calm Calm - 0.01 in   Partly Cloudy
3:27 AM 53.6 °F - 53.6 °F 100% 30.02 in 0.2 mi Calm Calm - 0.01 in Fog Fog
3:40 AM 53.6 °F - 53.6 °F 100% 30.03 in 1.0 mi Calm Calm - 0.01 in   Mist
3:53 AM 55.9 °F - 55.0 °F 97% 30.00 in 0.8 mi Calm Calm - 0.01 in   Mist
4:19 AM 55.4 °F - 55.4 °F 100% 30.02 in 0.2 mi Calm Calm - N/A Fog Fog
4:51 AM 55.4 °F - 55.4 °F 100% 30.03 in 0.5 mi South 3.5 mph - N/A Fog Fog
4:53 AM 55.0 °F - 55.0 °F 100% 30.01 in 0.8 mi South 3.5 mph - N/A   Mist
5:12 AM 55.4 °F - 55.4 °F 100% 30.04 in 0.2 mi Calm Calm - N/A Fog Fog
5:53 AM 55.0 °F - 54.0 °F 96% 30.03 in 0.2 mi Calm Calm - N/A Fog Fog
6:53 AM 55.0 °F - 55.0 °F 100% 30.04 in 0.2 mi Calm Calm - N/A Fog Fog
7:53 AM 57.0 °F - 55.9 °F 96% 30.04 in 0.5 mi Calm Calm - N/A Fog Fog
8:01 AM 57.2 °F - 55.4 °F 94% 30.06 in 1.0 mi Calm Calm - N/A   Overcast
8:10 AM 57.2 °F - 55.4 °F 94% 30.07 in 0.8 mi WSW 3.5 mph - N/A   Overcast
8:49 AM 57.2 °F - 55.4 °F 94% 30.07 in 1.0 mi Calm Calm - N/A   Overcast
8:53 AM 57.0 °F - 55.9 °F 96% 30.05 in 1.0 mi Calm Calm - N/A   Overcast
9:00 AM 57.2 °F - 55.4 °F 94% 30.06 in 6.0 mi Calm Calm - N/A   Overcast
9:14 AM 60.8 °F - 57.2 °F 88% 30.06 in 10.0 mi Calm Calm - N/A   Scattered Clouds
9:53 AM 66.9 °F - 57.9 °F 73% 30.04 in 10.0 mi Calm Calm - N/A   Scattered Clouds
10:53 AM 73.9 °F - 55.0 °F 52% 30.03 in 10.0 mi Calm Calm - N/A   Clear
11:53 AM 78.1 °F - 55.9 °F 46% 30.02 in 10.0 mi Calm Calm - N/A   Clear
12:53 PM 79.0 °F - 55.9 °F 45% 30.00 in 10.0 mi South 3.5 mph - N/A   Clear
1:53 PM 80.1 °F 80.4 °F 57.0 °F 45% 29.99 in 10.0 mi Calm Calm - N/A   Clear
2:53 PM 82.0 °F 81.4 °F 55.0 °F 39% 29.98 in 10.0 mi Calm Calm - N/A   Clear
3:53 PM 82.9 °F 82.6 °F 57.9 °F 42% 29.97 in 10.0 mi Variable 3.5 mph - N/A   Partly Cloudy
4:53 PM 82.0 °F 82.4 °F 60.1 °F 47% 29.96 in 10.0 mi SSE 5.8 mph - N/A   Clear
5:53 PM 77.0 °F - 63.0 °F 62% 29.95 in 10.0 mi Calm Calm - N/A   Clear
6:53 PM 77.0 °F - 66.9 °F 71% 29.95 in 10.0 mi Calm Calm - N/A   Clear
7:53 PM 73.0 °F - 66.0 °F 79% 29.95 in 10.0 mi South 3.5 mph - N/A   Clear
8:53 PM 69.1 °F - 64.0 °F 84% 29.97 in 6.0 mi South 4.6 mph - N/A   Haze
9:53 PM 66.9 °F - 63.0 °F 87% 29.97 in 10.0 mi Calm Calm - N/A   Clear
10:53 PM 64.0 °F - 61.0 °F 90% 29.97 in 10.0 mi Calm Calm - N/A   Clear
11:53 PM 62.1 °F - 60.1 °F 93% 29.97 in 10.0 mi Calm Calm - N/A   Clear